Location: Larkspur
(54.4391°N, 113.7691°W)
Time: 12:45:45
(UTC+00:00)

XW-2D - Visible Passes

Search period start: 08 December 2023 00:00
Search period end: 18 December 2023 00:00
Orbit: 454 x 463 km, 97.5° (Epoch: 08 December)

Date Brightness Start Highest point End Pass type
(mag) Time Alt. Az. Time Alt. Az. Time Alt. Az.
08 Dec ? 00:57:50 10° SSE 01:01:17 67° ENE 01:04:46 10° N visible
08 Dec ? 02:32:55 10° WSW 02:34:39 13° W 02:36:23 10° WNW visible
08 Dec ? 13:47:19 10° NE 13:50:22 28° E 13:53:24 10° SSE visible
09 Dec ? 00:26:05 10° SE 00:29:10 31° ENE 00:32:18 10° N visible
09 Dec ? 01:59:08 10° SSW 02:02:07 26° W 02:05:08 10° NW visible
09 Dec ? 13:16:00 10° ENE 13:17:51 14° E 13:19:41 10° ESE visible
09 Dec ? 14:47:42 10° N 14:51:10 64° WNW 14:54:36 10° SSW visible
09 Dec ? 23:54:55 10° E 23:57:10 16° ENE 23:59:26 10° NNE visible
10 Dec ? 01:26:17 10° S 01:29:43 59° WSW 01:33:11 10° NNW visible
10 Dec ? 14:15:27 10° NNE 14:18:53 55° E 14:22:17 10° S visible
11 Dec ? 00:54:00 10° SSE 00:57:26 60° ENE 01:00:53 10° N visible
11 Dec ? 02:28:44 10° SW 02:30:43 14° W 02:32:43 10° NW visible
11 Dec ? 13:43:29 10° NE 13:46:26 25° E 13:49:21 10° SSE visible
12 Dec ? 00:22:14 10° SE 00:25:15 28° ENE 00:28:17 10° N visible
12 Dec ? 01:55:03 10° SSW 01:58:08 29° W 02:01:15 10° NNW visible
12 Dec ? 13:12:17 10° ENE 13:13:48 12° E 13:15:19 10° ESE visible
12 Dec ? 14:43:41 10° N 14:47:10 71° WNW 14:50:37 10° SSW visible
12 Dec ? 23:51:07 10° E 23:53:10 15° ENE 23:55:14 10° NNE visible
13 Dec ? 01:22:13 10° S 01:25:40 66° WSW 01:29:09 10° NNW visible
13 Dec ? 14:11:23 10° NNE 14:14:46 49° E 14:18:08 10° S visible
14 Dec ? 00:49:55 10° SSE 00:53:18 53° ENE 00:56:44 10° N visible
14 Dec ? 02:24:19 10° SW 02:26:32 16° W 02:28:45 10° NW visible
14 Dec ? 13:39:23 10° NE 13:42:13 23° E 13:45:00 10° SSE visible
15 Dec ? 00:18:08 10° ESE 00:21:03 26° ENE 00:24:00 10° N visible
15 Dec ? 01:50:44 10° SSW 01:53:53 32° W 01:57:04 10° NNW visible
15 Dec ? 13:08:26 10° ENE 13:09:28 11° E 13:10:30 10° ESE visible
15 Dec ? 14:39:25 10° NNE 14:42:54 80° WNW 14:46:21 10° SSW visible
16 Dec ? 01:17:52 10° S 01:21:21 75° WSW 01:24:51 10° NNW visible
16 Dec ? 14:07:03 10° NNE 14:10:24 43° E 14:13:43 10° S visible
17 Dec ? 00:45:34 10° SE 00:48:55 47° ENE 00:52:18 10° N visible
17 Dec ? 02:19:40 10° SW 02:22:05 18° W 02:24:31 10° NW visible
17 Dec ? 13:35:03 10° NE 13:37:44 20° E 13:40:22 10° SE visible
